Regional Weather Roundup
Issued by NWS San Angelo, TX

Current Version | Previous Version | Text Only | Print | Product List | Glossary On
Versions: 1 2 3 4 5 6 7 8 9 10 11 12 13 14 15 16 17 18 19 20 21 22 23 24 25 26 27 28 29 30 31 32 33 34 35 36 37 38 39 40 41 42 43 44 45 46 47 48 49 50
000 ASUS44 KSJT 021758 RWRSJT WEST CENTRAL TEXAS REGIONAL WEATHER ROUNDUP NATIONAL WEATHER SERVICE SAN ANGELO TX 1200 PM CST TUE MAR 02 2021 NOTE: "FAIR" INDICATES FEW OR NO CLOUDS BELOW 12,000 FEET WITH NO SIGNIFICANT WEATHER AND/OR OBSTRUCTIONS TO VISIBILITY. TXZ049-054-064>066-071>073-076>078-098-099-113-114-127-128-139-140- 154-155-168>170-021900 ...LOCATIONS ACROSS WEST CENTRAL TEXAS... CITY SKY/WX TMP DP RH WIND PRES REMARKS SAN ANGELO SUNNY 55 23 28 VRB3 30.29F ABILENE SUNNY 56 22 26 W7 30.28F DYESS AFB NOT AVBL JUNCTION SUNNY 56 27 32 E3 30.28F SWEETWATER NOT AVBL BROWNWOOD NOT AVBL COLEMAN NOT AVBL SONORA NOT AVBL OZONA NOT AVBL BRADY NOT AVBL $$ TEXAS PANHANDLE/OKLAHOMA PANHANDLE CITY SKY/WX TMP DP RH WIND PRES REMARKS AMARILLO SUNNY 59 18 20 SW20G25 30.14F BORGER NOT AVBL CANADIAN NOT AVBL DALHART SUNNY 57 11 16 SW17 30.11F DUMAS NOT AVBL GUYMON NOT AVBL HEREFORD NOT AVBL PAMPA NOT AVBL PERRYTON NOT AVBL $$ SOUTHERN PANHANDLE/SOUTH PLAINS/ROLLING PLAINS CITY SKY/WX TMP DP RH WIND PRES REMARKS LUBBOCK SUNNY 54 14 20 SW10 30.23F SNYDER NOT AVBL CHILDRESS SUNNY 59 20 22 SW8G17 30.23F SEMINOLE NOT AVBL $$ PERMIAN BASIN CITY SKY/WX TMP DP RH WIND PRES REMARKS MIDLAND SUNNY 51 15 23 VRB6 30.28F ODESSA SUNNY 50 16 25 MISG 30.29F WINK SUNNY 52 15 23 S7 30.27F $$ FAR WEST/SOUTHWEST MOUNTAINS/TRANS PECOS CITY SKY/WX TMP DP RH WIND PRES REMARKS ALPINE NOT AVBL DRYDEN N/A 53 20 27 MISG 30.31F EL PASO SUNNY 49 15 25 SE6 30.26F FORT STOCKTON SUNNY 51 11 20 E7 30.28F GUADALUPE PASS SUNNY 43 13 29 SW14 30.27F WCI 36 MARFA NOT AVBL PECOS NOT AVBL $$ DALLAS/FORT WORTH METROPLEX CITY SKY/WX TMP DP RH WIND PRES REMARKS DFW AIRPORT SUNNY 57 27 31 SW6 30.28F FTW MEACHAM SUNNY 55 31 39 CALM 30.28F DAL-EXECUTIVE SUNNY 57 29 34 SW3 30.27F GRAND PRAIRIE SUNNY 52 30 43 CALM 30.33F ADDISON SUNNY 55 27 33 CALM 30.29F MESQUITE NOT AVBL LANCASTER NOT AVBL $$ NORTH CENTRAL TEXAS CITY SKY/WX TMP DP RH WIND PRES REMARKS SHRMAN/DENISON CLEAR 55 28 35 CALM 30.30F GAINESVILLE NOT AVBL BRIDGEPORT NOT AVBL DENTON SUNNY 57 30 35 VRB3 30.29F WAXAHACHIE NOT AVBL GRANBURY NOT AVBL $$ WESTERN NORTH TEXAS CITY SKY/WX TMP DP RH WIND PRES REMARKS WICHITA FALLS SUNNY 57 21 24 VRB6 30.27F VERNON NOT AVBL BRECKENRIDGE NOT AVBL COMANCHE NOT AVBL $$ CENTRAL AND SOUTH CENTRAL TEXAS CITY SKY/WX TMP DP RH WIND PRES REMARKS AUSTIN/BERGSTM MOSUNNY 60 32 34 N15 30.26F WACO SUNNY 58 35 42 MISG 30.29F HILLSBORO NOT AVBL TEMPLE SUNNY 57 33 40 N8 30.29F KILLEEN-GRAY NOT AVBL FORT HOOD NOT AVBL GEORGETOWN NOT AVBL LAGO VISTA NOT AVBL SAN MARCOS NOT AVBL NEW BRAUNFELS SUNNY 62 33 33 N13G23 30.25F RANDOLPH AFB NOT AVBL SAN ANTONIO MOSUNNY 60 34 37 N8G20 30.27F STINSON SUNNY 61 35 37 NE12G24 30.25F PLEASANTON NOT AVBL LA GRANGE NOT AVBL GIDDINGS NOT AVBL $$ EAST TEXAS CITY SKY/WX TMP DP RH WIND PRES REMARKS PARIS NOT AVBL CLARKSVILLE NOT AVBL TYLER SUNNY 56 29 35 NE9 30.26F LONGVIEW SUNNY 54 32 43 VRB3 30.26F PALESTINE NOT AVBL NACOGDOCHES NOT AVBL $$ TEXAS HILL COUNTRY AND EDWARDS PLATEAU CITY SKY/WX TMP DP RH WIND PRES REMARKS LLANO NOT AVBL HORSESHOE BAY NOT AVBL KERRVILLE NOT AVBL FREDERICKSBRG NOT AVBL ROCKSPRINGS NOT AVBL HONDO SUNNY 63 32 31 N8 30.27F UVALDE NOT AVBL DEL RIO SUNNY 61 30 31 NW9 30.29F $$ SOUTHEAST TEXAS CITY SKY/WX TMP DP RH WIND PRES REMARKS COLLEGE STN SUNNY 58 38 47 N13G20 30.26F CALDWELL NOT AVBL CROCKETT NOT AVBL BRENHAM NOT AVBL HUNTSVILLE SUNNY 57 41 55 N8 30.25F CONROE MOSUNNY 56 41 57 NE10G17 30.24F HOUSTON BUSH PTSUNNY 58 45 62 N12 30.23S HOUSTON HOBBY CLOUDY 57 45 64 N12 30.22S PERLAND CLOUDY 55 45 68 NE9 30.23S WHARTON NOT AVBL $$ THE UPPER TEXAS COAST CITY SKY/WX TMP DP RH WIND PRES REMARKS ORANGE NOT AVBL PORT ARTHUR PTSUNNY 51 46 83 N14 30.19F GALVESTON CLOUDY 54 46 74 N16G23 30.21F ANGLETON CLOUDY 57 48 72 N13 30.21F BAY CITY NOT AVBL $$ TEXAS COASTAL BEND, RIO GRANDE PLAINS DEEP SOUTH TEXAS CITY SKY/WX TMP DP RH WIND PRES REMARKS VICTORIA MOSUNNY 61 47 59 N10G18 30.24F BEEVILLE FAIR 62 45 55 N15 30.25F ROCKPORT CLOUDY 59 48 67 N12 30.25F PORT ARANSAS NOT AVBL PORT LAVACA NOT AVBL CORPUS CHRISTI PTSUNNY 59 46 62 N13 30.25F KINGSVILLE NAS NOT AVBL COTULLA SUNNY 62 34 35 VRB3 30.29F LAREDO NOT AVBL BROWNSVILLE CLOUDY 60 44 55 NW13 30.25F PORT ISABEL CLOUDY 58 45 62 NW13 30.25F HEBBRONVILLE NOT AVBL MCALLEN CLOUDY 61 39 44 NW15 30.28F WESLACO NOT AVBL FALFURRIAS CLOUDY 55 39 56 N7 30.27F EDINBURG NOT AVBL $$

USA.gov is the U.S. government's official web portal to all federal, state and local government web resources and services.